TimeCST,TemperatureF,Dew PointF,Humidity,Sea Level PressureIn,VisibilityMPH,Wind Direction,Wind SpeedMPH,Gust SpeedMPH,PrecipitationIn,Events,Conditions,WindDirDegrees,DateUTC
12:56 AM,-0.0,-2.9,88,30.23,10.0,Calm,Calm,-,N/A,,Clear,0,2012-12-30 06:56:00
1:56 AM,1.9,-2.0,83,30.22,10.0,Calm,Calm,-,N/A,,Clear,0,2012-12-30 07:56:00
2:56 AM,1.9,-2.0,83,30.22,10.0,Calm,Calm,-,N/A,,Clear,0,2012-12-30 08:56:00
3:56 AM,-2.0,-6.0,83,30.21,10.0,NE,4.6,-,N/A,,Clear,50,2012-12-30 09:56:00
4:56 AM,-2.9,-7.1,82,30.19,10.0,NE,3.5,-,N/A,,Clear,40,2012-12-30 10:56:00
5:56 AM,-2.9,-6.0,87,30.19,10.0,Calm,Calm,-,N/A,,Clear,0,2012-12-30 11:56:00
6:56 AM,-2.9,-7.1,82,30.19,10.0,Calm,Calm,-,N/A,,Clear,0,2012-12-30 12:56:00
7:56 AM,-5.1,-8.0,87,30.19,10.0,NE,5.8,-,N/A,,Clear,40,2012-12-30 13:56:00
8:56 AM,-0.0,-4.0,83,30.15,9.0,ENE,3.5,-,N/A,,Clear,60,2012-12-30 14:56:00
9:56 AM,10.0,6.1,84,30.11,10.0,East,6.9,-,N/A,,Clear,80,2012-12-30 15:56:00
10:56 AM,17.1,12.0,81,30.07,10.0,Variable,4.6,-,N/A,,Clear,0,2012-12-30 16:56:00
11:56 AM,23.0,16.0,74,30.02,10.0,South,9.2,-,N/A,,Clear,170,2012-12-30 17:56:00
12:56 PM,26.1,18.0,71,29.94,10.0,South,16.1,-,N/A,,Clear,180,2012-12-30 18:56:00
1:56 PM,26.1,18.0,71,29.93,10.0,SSW,16.1,-,N/A,,Clear,200,2012-12-30 19:56:00
2:56 PM,26.1,18.0,71,29.93,10.0,SW,8.1,-,N/A,,Clear,220,2012-12-30 20:56:00
3:56 PM,25.0,18.0,75,29.96,10.0,WSW,8.1,-,N/A,,Clear,240,2012-12-30 21:56:00
4:56 PM,19.9,14.0,78,29.99,10.0,West,8.1,-,N/A,,Clear,270,2012-12-30 22:56:00
5:56 PM,17.1,10.9,77,30.03,10.0,West,11.5,-,N/A,,Clear,280,2012-12-30 23:56:00
6:56 PM,14.0,8.1,77,30.06,10.0,WNW,11.5,18.4,N/A,,Clear,290,2012-12-31 00:56:00
7:56 PM,10.9,7.0,84,30.10,10.0,West,4.6,-,N/A,,Clear,280,2012-12-31 01:56:00
8:56 PM,10.9,6.1,81,30.09,10.0,NW,9.2,-,N/A,,Clear,310,2012-12-31 02:56:00
9:56 PM,10.9,7.0,84,30.13,10.0,Calm,Calm,-,N/A,,Clear,0,2012-12-31 03:56:00
10:56 PM,14.0,10.0,84,30.15,10.0,NW,9.2,-,N/A,,Clear,320,2012-12-31 04:56:00
11:00 PM,15.8,10.4,79,30.07,10.0,NNW,12.7,18.4,N/A,,Partly Cloudy,330,2012-12-31 05:00:00
11:10 PM,15.8,12.2,86,30.08,10.0,NNW,9.2,-,N/A,,Mostly Cloudy,330,2012-12-31 05:10:00
11:56 PM,17.1,14.0,88,30.17,10.0,NNW,11.5,-,N/A,,Overcast,340,2012-12-31 05:56:00